Regional Weather Roundup
Issued by NWS

Home | Current Version | Previous Version | Graphics & Text | Print | Product List | Glossary On
Versions: 1 2 3 4 5 6 7 8 9 10 11 12 13 14 15 16 17 18 19 20 21 22 23 24 25 26 27 28 29 30 31 32 33 34 35 36 37 38 39 40 41 42 43 44 45 46 47 48 49 50
000
ASUS43 KOAX 210402
RWRNE

WEATHER ROUNDUP FOR NEBRASKA
NATIONAL WEATHER SERVICE OMAHA NE
1100 PM CDT SUN MAY 20 2018

NOTES: SATELLITE DATA IS BEING USED TO AUGMENT CLOUD COVER ABOVE
       12000 FEET.
       "FAIR" INDICATES FEW OR NO CLOUDS BELOW 12,000 FEET WITH NO
       SIGNIFICANT WEATHER AND/OR OBSTRUCTIONS TO VISIBILITY.


NEZ001>004-019>022-054>056-210500-
NEBRASKA PANHANDLE

CITY           SKY/WX    TMP DP  RH WIND       PRES   REMARKS
SCOTTSBLUFF    PTCLDY    52  47  83 E7        30.10S
ALLIANCE       CLEAR     46  42  86 E6        30.10S
CHADRON        PTCLDY    48  41  76 SE5       30.09F
GORDON         FAIR      48  42  79 E5        30.12S
KIMBALL        MOCLDY    47  45  91 S6        30.13R
SIDNEY         PTCLDY    47  45  93 SE6       30.12S
$$

NEZ057>060-069>072-079>082-210500-
SOUTHWEST NEBRASKA

CITY           SKY/WX    TMP DP  RH WIND       PRES   REMARKS
NORTH PLATTE   CLOUDY    57  52  83 SE7       30.12S
IMPERIAL       CLEAR     49  46  90 SE3       30.12S
LEXINGTON      CLEAR     51  49  95 CALM      30.13F FOG
MCCOOK         PTCLDY    53  51  93 SE7       30.12F
OGALLALA       CLEAR     51  48  88 CALM      30.11F
$$

NEZ005>010-023>029-035>040-094-210500-
NORTH CENTRAL NEBRASKA

CITY           SKY/WX    TMP DP  RH WIND       PRES   REMARKS
VALENTINE      CLOUDY    53  48  83 W3        30.12F
AINSWORTH      CLOUDY    53  50  89 S3        30.13S
BROKEN BOW     CLOUDY    54  50  86 CALM      30.13R
O`NEILL        CLOUDY    55  52  89 CALM      30.12F
ORD            CLOUDY    52  50  93 CALM      30.11S
THEDFORD       CLEAR     52  48  89 E6        30.13F
$$

NEZ041-046>049-061>064-073>077-083>087-210500-
SOUTH CENTRAL NEBRASKA

CITY           SKY/WX    TMP DP  RH WIND       PRES   REMARKS
GRAND ISLAND   CLOUDY    54  51  90 N6        30.13R
AURORA         CLOUDY    52  52 100 N5        30.12S
HASTINGS       CLOUDY    54  52  93 CALM      30.13S
HEBRON         CLOUDY    55  53  92 N5        30.12S
HOLDREGE       PTCLDY    50  50 100 CALM      30.13F FOG
KEARNEY        CLOUDY    54  52  93 CALM      30.14S
YORK           CLOUDY    52  52 100 N6        30.12S FOG
$$

NEZ011>018-030>034-042>045-210500-
NORTHEAST NEBRASKA

CITY           SKY/WX    TMP DP  RH WIND       PRES   REMARKS
NORFOLK        CLOUDY    52  51  97 NW5       30.11S
ALBION         DRIZZLE   53  51  94 CALM      30.12S
BLAIR          LGT RAIN  56  55  98 NW3       30.07S
COLUMBUS       CLOUDY    52  51  97 NW6       30.12R FOG
FREMONT        RAIN      55  55  97 NW6       30.10S
TEKAMAH        CLOUDY    56  55  97 N9        30.08R FOG
WAYNE          DRIZZLE   53  52  97 N3        30.10S
$$

NEZ050>053-065>068-078-088>093-210500-
SOUTHEAST NEBRASKA

CITY           SKY/WX    TMP DP  RH WIND       PRES   REMARKS
LINCOLN        CLOUDY    54  53  97 NW6       30.11R FOG
OMAHA EPPLEY   CLOUDY    58  56  93 N6        30.07R
BEATRICE       DRIZZLE   55  55  98 NW8       30.10S
FALLS CITY     CLOUDY    61  56  83 NW10      30.05R
NEBRASKA CITY  MOCLDY    57  57 100 NW7       30.08R
PLATTSMOUTH    CLOUDY    57  55  92 NW6       30.07R
$$

NEZ044-045-051>053-067-210500-
OMAHA AREA

CITY           SKY/WX    TMP DP  RH WIND       PRES   REMARKS
OMAHA EPPLEY   CLOUDY    58  56  93 N6        30.07R
BLAIR          LGT RAIN  56  55  98 NW3       30.07S
FREMONT        RAIN      55  55  97 NW6       30.10S
MILLARD        CLOUDY    58  56  92 CALM      30.08R
OFFUTT AFB     CLOUDY    58  57  97 N5        30.05F
PLATTSMOUTH    CLOUDY    57  55  92 NW6       30.07R
WAHOO          DRIZZLE   55  53  92 NW8       30.09S
$$




USA.gov is the U.S. government's official web portal to all federal, state and local government web resources and services.